Powrót do katalogu

STARLINK-37175

AktywnyŁącznośćSSO
NORAD 68401·PAYLOAD·🇺🇸 United States

Wystrzelony Mar 26, 2026 z Vandenberg Space Force Base

Loading…

Następne Przeloty (najbliższe 24 godziny)

TLE

ŚwieżeSource: CelesTrak SupGP

Epoka: Sep 14, 2026, 23:07 UTC

1 68401C 26063X   26257.96368056 -.00031269  00000+0 -97023-3 0  2574
2 68401  97.2864  38.8649 0001198  94.2039  55.4705 15.33469359    16

Śledź STARLINK-37175 w czasie rzeczywistym z AllMySat

Download on the App Store